Weather History for Langdon, ND

Change the Weather History Date:

Monday, February 18, 2013

  Actual Average (KDVL) Record (KDVL)
Temperature  
Mean Temperature 3 °F -  
Max Temperature 17 °F 22 °F 46 °F (1954)
Min Temperature -11 °F 4 °F -35 °F (1966)
Degree Days  
Heating Degree Days 62    
Moisture  
Dew Point -2 °F    
Average Humidity 85    
Maximum Humidity 100    
Minimum Humidity 71    
Precipitation  
Precipitation 11.61 in - - ()
Sea Level Pressure  
Sea Level Pressure 29.86 in    
Wind  
Wind Speed 29 mph (North)    
Max Wind Speed 40 mph    
Max Gust Speed 47 mph    
Visibility 1 miles    
Events Rain , Snow    
Averages and records for this station are not official NWS values.
T = Trace of Precipitation, MM = Missing Value Source: NWS Daily Summary

Daily Weather History Graph

Daily Weather History Graph

Search for Another Location

Airport:

Trip Planner

Search our weather history database for the weather conditions in past years. The results will help you decide how hot, cold, wet, or windy it might be!

Date:

Astronomy

Feb. 18, 2013 Rise Set
Actual Time 7:35 AM CST 6:00 PM CST
Civil Twilight 7:03 AM CST 6:32 PM CST
Nautical Twilight 6:26 AM CST 7:09 PM CST
Astronomical Twilight 5:50 AM CST 7:45 PM CST
Moon 11:32 AM CST (2/18) 2:30 AM CST (2/18)
Length of Visible Light 11h 28m
Length of Day
10h 24m
First Quarter, 58% of the Moon is Illuminated
Feb 18
First Quarter
Feb 25
Full
Mar 4
Last Quarter
Mar 11
New
Mar 19
First Quarter

Hourly Weather History & Observations

Time (CST) Temp. Windchill Dew Point Humidity Pressure Visibility Wind Dir Wind Speed Gust Speed Precip Events Conditions
12:15 AM 17.6 °F 0.5 °F 17.6 °F 100% 29.52 in 1.0 mi North 21.9 mph 27.6 mph 1.01 in Snow Light Snow
12:35 AM 17.6 °F 0.9 °F 17.6 °F 100% 29.52 in 1.0 mi North 20.7 mph 26.5 mph 1.52 in Snow Light Snow
12:55 AM 17.6 °F -0.3 °F 17.6 °F 100% 29.53 in 1.0 mi North 24.2 mph 31.1 mph 2.25 in Snow Light Snow
1:15 AM 17.6 °F -1.0 °F 17.6 °F 100% 29.53 in 1.2 mi North 26.5 mph 32.2 mph 0.37 in Snow Light Snow
1:35 AM 17.6 °F -1.3 °F 17.6 °F 100% 29.54 in 1.0 mi North 27.6 mph 34.5 mph 1.17 in Snow Light Snow
1:55 AM 17.6 °F -1.9 °F 15.8 °F 93% 29.55 in 0.8 mi North 29.9 mph 35.7 mph 1.66 in Snow Light Snow
2:15 AM 15.8 °F -5.0 °F 15.8 °F 100% 29.57 in 0.8 mi North 32.2 mph 39.1 mph 0.21 in Snow Light Snow
2:35 AM 15.8 °F -4.4 °F 14.0 °F 93% 29.58 in 0.8 mi North 29.9 mph 36.8 mph 0.69 in Snow Light Snow
2:55 AM 14.0 °F -8.3 °F 10.4 °F 86% 29.59 in 0.5 mi North 35.7 mph 42.6 mph 1.05 in Snow Snow
3:15 AM 10.4 °F -13.5 °F 8.6 °F 92% 29.60 in 0.2 mi North 36.8 mph 46.0 mph 0.20 in Snow Heavy Snow
3:35 AM 10.4 °F -12.3 °F 8.6 °F 92% 29.62 in 0.5 mi North 32.2 mph 43.7 mph 0.69 in Snow Snow
3:55 AM 8.6 °F -14.5 °F 6.8 °F 92% 29.64 in 0.2 mi North 31.1 mph 43.7 mph 1.25 in Snow Heavy Snow
4:15 AM 8.6 °F -16.8 °F 6.8 °F 92% 29.64 in 0.2 mi North 40.3 mph 47.2 mph 0.14 in Snow Heavy Snow
4:35 AM 6.8 °F -16.9 °F 5.0 °F 92% 29.67 in 0.5 mi North 31.1 mph 42.6 mph 0.38 in Snow Snow
4:55 AM 6.8 °F -16.9 °F 5.0 °F 92% 29.68 in 0.5 mi North 31.1 mph 41.4 mph 0.63 in Snow Snow
5:15 AM 6.8 °F -16.9 °F 5.0 °F 92% 29.69 in 0.5 mi North 31.1 mph 39.1 mph 0.14 in Snow Snow
5:35 AM 6.8 °F -16.6 °F 3.2 °F 85% 29.71 in 0.5 mi North 29.9 mph 40.3 mph 0.34 in Snow Snow
5:55 AM 5.0 °F -19.7 °F 1.4 °F 85% 29.72 in 0.5 mi North 32.2 mph 36.8 mph 0.60 in Snow Snow
6:15 AM 5.0 °F -19.7 °F 1.4 °F 85% 29.73 in 0.5 mi North 32.2 mph 40.3 mph 0.22 in Snow Snow
6:35 AM 5.0 °F -20.7 °F 1.4 °F 85% 29.74 in 0.2 mi North 35.7 mph 42.6 mph 0.43 in Snow Heavy Snow
6:55 AM 5.0 °F -20.1 °F 1.4 °F 85% 29.75 in 0.5 mi North 33.4 mph 40.3 mph 0.54 in Snow Snow
7:15 AM 3.2 °F -20.7 °F -0.4 °F 85% 29.76 in 0.5 mi North 27.6 mph 34.5 mph 0.06 in Snow Snow
7:35 AM 3.2 °F -21.8 °F -0.4 °F 85% 29.76 in 0.2 mi North 31.1 mph 36.8 mph 0.13 in Snow Heavy Snow
7:55 AM 3.2 °F -22.9 °F -0.4 °F 85% 29.77 in 0.2 mi North 34.5 mph 39.1 mph 0.19 in Snow Heavy Snow
8:15 AM 3.2 °F -21.5 °F -0.4 °F 85% 29.78 in 0.2 mi North 29.9 mph 39.1 mph 0.04 in Snow Heavy Snow
8:35 AM 1.4 °F -25.0 °F -0.4 °F 92% 29.79 in 0.2 mi North 33.4 mph 43.7 mph 0.12 in Snow Heavy Snow
8:55 AM 1.4 °F -25.7 °F -0.4 °F 92% 29.80 in 0.2 mi North 35.7 mph 43.7 mph 0.18 in Snow Heavy Snow
9:15 AM 1.4 °F -24.3 °F -0.4 °F 92% 29.81 in 0.2 mi North 31.1 mph 40.3 mph 0.03 in Snow Heavy Snow
9:35 AM 1.4 °F -24.6 °F -2.2 °F 85% 29.82 in 0.2 mi North 32.2 mph 38.0 mph 0.11 in Snow Heavy Snow
9:55 AM -0.4 °F -27.1 °F -2.2 °F 92% 29.83 in 0.2 mi North 32.2 mph 40.3 mph 0.30 in Snow Heavy Snow
10:15 AM -0.4 °F -27.8 °F -4.0 °F 85% 29.84 in 0.2 mi North 34.5 mph 41.4 mph 0.22 in Rain Light Freezing Rain
10:35 AM -0.4 °F -27.1 °F -4.0 °F 85% 29.85 in 0.2 mi North 32.2 mph 42.6 mph 0.51 in Rain Light Freezing Rain
10:55 AM -0.4 °F -27.8 °F -4.0 °F 85% 29.85 in 0.2 mi North 34.5 mph 41.4 mph 0.77 in Rain Light Freezing Rain
11:15 AM -0.4 °F -26.4 °F -4.0 °F 85% 29.87 in 0.2 mi North 29.9 mph 41.4 mph 0.23 in Rain Light Freezing Rain
11:35 AM -0.4 °F -26.7 °F -4.0 °F 85% 29.87 in 0.2 mi North 31.1 mph 38.0 mph 0.38 in Rain Light Freezing Rain
11:55 AM -0.4 °F -26.4 °F -4.0 °F 85% 29.89 in 0.5 mi North 29.9 mph 36.8 mph 0.49 in Rain Light Freezing Rain
12:15 PM -0.4 °F -27.1 °F -4.0 °F 85% 29.89 in 0.2 mi North 32.2 mph 39.1 mph 0.12 in Rain Light Freezing Rain
12:35 PM -0.4 °F -26.0 °F -4.0 °F 85% 29.90 in 0.2 mi North 28.8 mph 38.0 mph 0.34 in Rain Light Freezing Rain
12:55 PM -0.4 °F -27.1 °F -5.8 °F 78% 29.90 in 0.2 mi North 32.2 mph 38.0 mph 0.45 in Snow Heavy Snow
1:15 PM -0.4 °F -26.7 °F -5.8 °F 78% 29.91 in 0.5 mi North 31.1 mph 38.0 mph 0.04 in Snow Snow
1:35 PM -0.4 °F -26.7 °F -5.8 °F 78% 29.91 in 0.2 mi North 31.1 mph 39.1 mph 0.23 in Rain Light Freezing Rain
1:55 PM -0.4 °F -26.7 °F -5.8 °F 78% 29.91 in 0.2 mi North 31.1 mph 38.0 mph 0.37 in Rain Light Freezing Rain
2:15 PM -0.4 °F -26.4 °F -4.0 °F 85% 29.92 in 0.5 mi North 29.9 mph 34.5 mph 0.06 in Rain Light Freezing Rain
2:35 PM -0.4 °F -25.6 °F -4.0 °F 85% 29.93 in 0.5 mi North 27.6 mph 34.5 mph 0.14 in Rain Light Freezing Rain
2:55 PM -0.4 °F -25.6 °F -4.0 °F 85% 29.93 in 0.2 mi North 27.6 mph 35.7 mph 0.20 in Rain Light Freezing Rain
3:15 PM -0.4 °F -27.1 °F -4.0 °F 85% 29.93 in 0.5 mi North 32.2 mph 38.0 mph 0.04 in Rain Light Freezing Rain
3:35 PM -0.4 °F -26.7 °F -4.0 °F 85% 29.95 in 0.5 mi North 31.1 mph 34.5 mph 0.12 in Rain Light Freezing Rain
3:55 PM -0.4 °F -26.7 °F -4.0 °F 85% 29.96 in 0.5 mi North 31.1 mph 40.3 mph 0.18 in Rain Light Freezing Rain
4:15 PM -0.4 °F -24.7 °F -4.0 °F 85% 29.97 in 0.5 mi North 25.3 mph 34.5 mph 0.04 in Rain Light Freezing Rain
4:35 PM -0.4 °F -26.4 °F -4.0 °F 85% 29.97 in 0.5 mi North 29.9 mph 38.0 mph 0.11 in Rain Light Freezing Rain
4:55 PM -0.4 °F -26.4 °F -5.8 °F 78% 29.99 in 0.5 mi North 29.9 mph 33.4 mph 0.17 in Rain Light Freezing Rain
5:15 PM -2.2 °F -27.6 °F -5.8 °F 85% 30.00 in 0.5 mi North 26.5 mph 35.7 mph 0.05 in Rain Light Freezing Rain
5:35 PM -2.2 °F -27.6 °F -7.6 °F 78% 30.01 in 0.5 mi North 26.5 mph 33.4 mph 0.09 in Rain Light Freezing Rain
5:55 PM -2.2 °F -28.4 °F -7.6 °F 78% 30.02 in 0.5 mi North 28.8 mph 35.7 mph 0.13 in Rain Light Freezing Rain
6:15 PM -2.2 °F -28.0 °F -7.6 °F 78% 30.03 in 0.5 mi North 27.6 mph 35.7 mph 0.03 in Rain Light Freezing Rain
6:35 PM -2.2 °F -27.6 °F -7.6 °F 78% 30.04 in 1.2 mi North 26.5 mph 32.2 mph 0.07 in Rain Light Freezing Rain
6:55 PM -4.0 °F -28.1 °F -7.6 °F 85% 30.06 in 2.0 mi North 21.9 mph 29.9 mph 0.09 in Rain Light Freezing Rain
7:15 PM -4.0 °F -27.6 °F -9.4 °F 78% 30.07 in 3.0 mi North 20.7 mph 28.8 mph N/A Rain Light Freezing Rain
7:35 PM -4.0 °F -29.6 °F -9.4 °F 78% 30.08 in 2.0 mi North 25.3 mph 32.2 mph 0.01 in Rain Light Freezing Rain
7:55 PM -5.8 °F -32.0 °F -9.4 °F 84% 30.08 in 1.8 mi North 25.3 mph 28.8 mph 0.03 in Rain Light Freezing Rain
8:15 PM -5.8 °F -31.0 °F -11.2 °F 77% 30.09 in 2.0 mi North 23.0 mph - N/A Rain Light Freezing Rain
8:35 PM -5.8 °F -32.0 °F -11.2 °F 77% 30.09 in 2.5 mi North 25.3 mph 32.2 mph 0.01 in Rain Light Freezing Rain
8:55 PM -7.6 °F -32.9 °F -11.2 °F 84% 30.10 in 2.0 mi North 21.9 mph 31.1 mph 0.02 in Rain Light Freezing Rain
9:15 PM -7.6 °F -33.9 °F -11.2 °F 84% 30.10 in 1.5 mi North 24.2 mph 28.8 mph 0.01 in Rain Light Freezing Rain
9:35 PM -7.6 °F -34.8 °F -11.2 °F 84% 30.11 in 1.2 mi North 26.5 mph 34.5 mph 0.03 in Rain Light Freezing Rain
9:55 PM -7.6 °F -34.8 °F -13.0 °F 77% 30.12 in 1.5 mi North 26.5 mph 33.4 mph 0.05 in Rain Light Freezing Rain
10:15 PM -9.4 °F -37.7 °F -13.0 °F 84% 30.12 in 2.0 mi North 27.6 mph 34.5 mph N/A Rain Light Freezing Rain
10:35 PM -9.4 °F -35.8 °F -14.8 °F 77% 30.13 in 3.0 mi North 23.0 mph 33.4 mph 0.01 in Rain Light Freezing Rain
10:55 PM -9.4 °F -35.2 °F -16.6 °F 71% 30.14 in 5.0 mi North 21.9 mph - 0.01 in   Haze
11:15 PM -11.2 °F -38.7 °F -16.6 °F 77% 30.15 in 5.0 mi North 24.2 mph 28.8 mph N/A   Haze
11:35 PM -11.2 °F -39.7 °F -16.6 °F 77% 30.15 in 5.0 mi North 26.5 mph 31.1 mph N/A   Haze
11:55 PM -11.2 °F -38.7 °F -16.6 °F 77% 30.16 in 5.0 mi North 24.2 mph 27.6 mph N/A   Haze